AirNav   Air Wisconsin pilot careers
 
 927 users online  

8C4 Mathews Memorial Airport
Tipton, Iowa, USA

GOING TO TIPTON?


FAA INFORMATION EFFECTIVE 24 MAY 2018

Location

FAA Identifier: 8C4
Lat/Long: 41-45-48.0750N / 091-09-10.5690W
41-45.801250N / 091-09.176150W
41.7633542 / -91.1529358
(estimated)
Elevation: 840 ft. / 256 m (estimated)
Variation: 02E (1985)
From city: 2 miles SW of TIPTON, IA
Time zone: UTC -5 (UTC -6 during Standard Time)
Zip code: 52772

Airport Operations

Airport use: Open to the public
Activation date: 08/1969
Control tower: no
ARTCC: CHICAGO CENTER
FSS: FORT DODGE FLIGHT SERVICE STATION
NOTAMs facility: FOD (NOTAM-D service available)
Attendance:  UNATNDD
Wind indicator: lighted
Segmented circle: no
Lights: SS-SR

Airport Communications

CTAF: 122.9
CEDAR RAPIDS APPROACH: 119.7 [0600-2130]
CEDAR RAPIDS DEPARTURE: 119.7 [0600-2130]
WX ASOS at IOW (19 nm SW): 128.075 (319-339-9491)
  • APCH/DEP SVC PRVDD BY CHICAGO ARTCC ON FREQS 132.8/328.4 (CEDAR RAPIDS RCAG) WHEN CEDAR RAPIDS APCH CTL CLSD.

Nearby radio navigation aids

VOR radial/distance  VOR name  Freq  Var
IOWr050/25.3IOWA CITY VOR/DME116.2005E
CIDr100/29.3CEDAR RAPIDS VOR/DME114.1005E
CVAr272/30.2DAVENPORT VORTAC113.8004E
MZVr314/35.2MOLINE VOR/DME114.4005E

Airport Services

Fuel available: 100LL
Parking: tiedowns
Airframe service: NONE
Powerplant service: NONE
Bottled oxygen: NONE
Bulk oxygen: NONE

Runway Information

Runway 11/29

Dimensions: 3000 x 60 ft. / 914 x 18 m
Surface: concrete, in fair condition
Runway edge lights: medium intensity
RUNWAY 11  RUNWAY 29
Latitude: 41-45.887167N41-45.715500N
Longitude: 091-09.485500W091-08.866833W
Elevation: 840.0 ft.840.0 ft.
Traffic pattern: leftleft
Runway heading: 108 magnetic, 110 true288 magnetic, 290 true
Markings: basic, in good conditionbasic, in good condition
Runway end identifier lights: yes
Touchdown point: yes, no lightsyes, no lights
Obstructions: 70 ft. trees, 3042 ft. from runway, 7 ft. right of centerline, 40:1 slope to clear20 ft. road, 450 ft. from runway, 150 ft. right of centerline, 12:1 slope to clear

Airport Ownership and Management from official FAA records

Ownership: Publicly-owned
Owner: CITY OF TIPTON
407 LYNN ST.
TIPTON, IA 52772
Phone 563-886-6187
BRIAN WAGNER - CITY ADMINISTRATOR.
Manager: MAX COPPESS
303 2ND AVENUE
STANWOOD, IA 52337
Phone 563-212-3308
OR 563-886-6187

Airport Operational Statistics

Aircraft based on the field: 15
Single engine airplanes: 14
Multi engine airplanes: 1
    
Aircraft operations: avg 38/week *
59% local general aviation
40% transient general aviation
1% military
* for 12-month period ending 20 July 2016

Additional Remarks

RY 29 IS CALM WIND RY.
DEER AND WATERFOWL ON AND INVOF OF ARPT.

Instrument Procedures

NOTE: All procedures below are presented as PDF files. If you need a reader for these files, you should download the free Adobe Reader.

NOT FOR NAVIGATION. Please procure official charts for flight.
FAA instrument procedures published for use from 24 May 2018 at 0901Z to 21 June 2018 at 0900Z.

 
IAPs - Instrument Approach Procedures
RNAV (GPS) RWY 11   download (153KB)
VOR RWY 11   download (165KB)
NOTE: Special Take-Off Minimums/Departure Procedures apply   download (158KB)

Other nearby airports with instrument procedures:

KIOW - Iowa City Municipal Airport (19 nm SW)
KMUT - Muscatine Municipal Airport (24 nm S)
KOQW - Maquoketa Municipal Airport (25 nm NE)
KCID - The Eastern Iowa Airport (26 nm W)
KDVN - Davenport Municipal Airport (27 nm E)
 
Loc | Ops | Rwys | IFR | FBO | Links
Com | Nav | Svcs | Stats | Notes

AirNav Hotels Sweepstakes
 
Area around 8C4 (Mathews Memorial Airport)
 
Road maps at: MapQuest Bing Google
 
Aerial photo
WARNING: Photo may not be current or correct
Aerial photo of 8C4 (Mathews Memorial Airport)
Photo taken 16-Jun-2010
looking east.

Do you have a better or more recent aerial photo of Mathews Memorial Airport that you would like to share? If so, please send us your photo.

 
Sectional chart

 
Airport distance calculator
Flying to Mathews Memorial Airport? Find the distance to fly.

From to 8C4

Sunrise and sunset
Times for 27-May-2018
 Local
(UTC-5)
 Zulu
(UTC)
Morning civil twilight05:0310:03
Sunrise05:3610:36
Sunset20:2801:28
Evening civil twilight21:0102:01

Current date and time
Zulu (UTC)  27-May-2018 14:36:51
Local (UTC-5)  27-May-2018 09:36:51
 
METAR
KIOW 
19nm SW 
271352Z AUTO 17004KT 10SM CLR 27/22 A2985 RMK AO2 SLP103 T02720217
KMUT 
24nm S 
271415Z AUTO 00000KT 10SM CLR 28/22 A2985 RMK AO2 PNO
KCID 
26nm W 
271352Z 19005KT 10SM CLR 26/22 A2984 RMK AO2 SLP096 T02610217
KDVN 
27nm E 
271352Z AUTO 19003KT 10SM FEW100 27/20 A2987 RMK AO2 SLP105 T02670200 $
KMXO 
27nm N 
271415Z AUTO 21004KT 10SM CLR 28/22 A2985 RMK AO2
KMLI 
34nm SE 
271352Z 00000KT 10SM CLR 27/21 A2985 RMK AO2 SLP102 T02670206
KCWI 
38nm E 
271356Z AUTO VRB03KT 10SM 27/21 A2987 RMK AO2 SLP123 T02670211 $
KAWG 
38nm SW 
271415Z AUTO 23005KT 10SM CLR 27/24 A2987 RMK AO2
TAF
KCID 
26nm W 
271120Z 2712/2812 16005KT P6SM SCT200
NOTAMs
Click for the latest NOTAMs
NOTAMs are issued by the DoD/FAA and will open in a separate window not controlled by AirNav.

 

 
 

FBO, Fuel Providers, and Aircraft Ground Support

  
 Business Name 
 
 Contact 
 
 Services / Description 
 
Fuel Prices
 
Comments
  
Mathews Memorial Airport 563-886-3559
no information available

If you are affiliated with Mathews Memorial Airport and would like to show here your services, contact info, web link, logo, and more, click here
100LL
SS $4.70 
 Updated 03-Mar-2018
 
   write
SS=Self service
Update Fuel Prices
 

Would you like to see your business listed on this page?

 If your business provides an interesting product or service to pilots, flight crews, aircraft, or users of the Mathews Memorial Airport, you should consider listing it here.  To start the listing process, click on the button below
 
Add a business
 

Other Pages about Mathews Memorial Airport

www.tiptoniowa.org/airport.htm
Page from the Iowa Airport Directory
 
Update a link
 
Copyright © AirNav, LLC. All rights reserved. Privacy Policy  Contact